ANZ4 NZAA-KLAX

Flight info

Callsign ANZ4
Flight time N/A
Altitude 33000
Route OLBEX G599 MUKLU DCT 30S169W DCT PABGO L508 RG B454 LOTRA/N0488F350 B454 BIBUP DCT 15S156W 10S154W DCT TOPOM DCT 02S150W DCT BISOX DCT 05N147W 10N144W/N0481F370 15N141W DCT BELAN DCT 23N135W DCT AFONE DCT 27N130W 30N125W DCT FICKY GOATZ2
Aircraft B77W/H-SDE1E2E3FGHIJ2J3J4J5M1RWXY/LB1D1

Departure

Time N/A
Airport Auckland International Airport (NZAA)

Arrival

Time 2026-04-25 01:08
Airport Los Angeles International Airport (KLAX)
Time Latitude Longitude Altitude Speed Heading
2026-04-24 22:35 22.48847 -135.38370 26582 ft 315 kts 35°
2026-04-24 22:35 22.50636 -135.37032 26584 ft 315 kts 35°
2026-04-24 22:35 22.52443 -135.35681 26587 ft 315 kts 35°
2026-04-24 22:36 22.54266 -135.34317 26587 ft 315 kts 35°
2026-04-24 22:36 22.56070 -135.32968 26592 ft 316 kts 35°
2026-04-24 22:36 22.57892 -135.31604 26597 ft 317 kts 35°
2026-04-24 22:36 22.59712 -135.30241 26600 ft 317 kts 35°
2026-04-24 22:37 22.61524 -135.28883 26602 ft 317 kts 35°
2026-04-24 22:37 22.63331 -135.27530 26605 ft 318 kts 35°
2026-04-24 22:37 22.65165 -135.26155 26609 ft 318 kts 35°
2026-04-24 22:37 22.66991 -135.24786 26613 ft 319 kts 35°
2026-04-24 22:38 22.68820 -135.23416 26620 ft 320 kts 35°
2026-04-24 22:38 22.70663 -135.22034 26621 ft 321 kts 35°
2026-04-24 22:38 22.72491 -135.20662 26623 ft 321 kts 35°
2026-04-24 22:38 22.74326 -135.19284 26628 ft 322 kts 35°
2026-04-24 22:39 22.76176 -135.17894 26633 ft 323 kts 35°
2026-04-24 22:39 22.78043 -135.16492 26636 ft 323 kts 35°
2026-04-24 22:39 22.79901 -135.15096 26643 ft 324 kts 35°
2026-04-24 22:39 22.81748 -135.13709 26646 ft 325 kts 35°
2026-04-24 22:40 22.83626 -135.12295 26651 ft 325 kts 35°
2026-04-24 22:40 22.85487 -135.10896 26656 ft 326 kts 35°
2026-04-24 22:40 22.87340 -135.09503 26659 ft 327 kts 35°
2026-04-24 22:40 22.89234 -135.08077 26665 ft 327 kts 35°
2026-04-24 22:41 22.91092 -135.06679 26670 ft 328 kts 35°
2026-04-24 22:41 22.92981 -135.05255 26675 ft 329 kts 35°
2026-04-24 22:41 22.94854 -135.03842 26682 ft 330 kts 35°
2026-04-24 22:41 22.96759 -135.02406 26685 ft 331 kts 35°
2026-04-24 22:42 22.98626 -135.00952 26679 ft 331 kts 39°
2026-04-24 22:42 23.00352 -134.99287 26669 ft 332 kts 46°
2026-04-24 22:42 23.01938 -134.97443 26670 ft 333 kts 47°
2026-04-24 22:42 23.03513 -134.95625 26676 ft 334 kts 47°
2026-04-24 22:43 23.05105 -134.93779 26681 ft 335 kts 47°
2026-04-24 22:43 23.06684 -134.91914 26685 ft 336 kts 48°
2026-04-24 22:43 23.08268 -134.90025 26689 ft 337 kts 48°
2026-04-24 22:43 23.09842 -134.88139 26693 ft 338 kts 48°
2026-04-24 22:44 23.11423 -134.86240 26696 ft 339 kts 48°
2026-04-24 22:44 23.12991 -134.84355 26699 ft 340 kts 48°
2026-04-24 22:44 23.14580 -134.82443 26700 ft 341 kts 48°
2026-04-24 22:44 23.16175 -134.80524 26702 ft 342 kts 48°
2026-04-24 22:45 23.17770 -134.78603 26705 ft 344 kts 48°
2026-04-24 22:45 23.19376 -134.76669 26706 ft 345 kts 48°
2026-04-24 22:45 23.21004 -134.74707 26710 ft 346 kts 48°
2026-04-24 22:45 23.22616 -134.72765 26712 ft 347 kts 48°
2026-04-24 22:46 23.24242 -134.70804 26714 ft 349 kts 48°
2026-04-24 22:46 23.25868 -134.68842 26716 ft 350 kts 48°
2026-04-24 22:46 23.27482 -134.66893 26719 ft 351 kts 48°
2026-04-24 22:46 23.29123 -134.64912 26722 ft 352 kts 48°
2026-04-24 22:47 23.30771 -134.62923 26725 ft 354 kts 48°
2026-04-24 22:47 23.32436 -134.60910 26728 ft 355 kts 48°
2026-04-24 22:47 23.34077 -134.58928 26730 ft 356 kts 48°
2026-04-24 22:47 23.35737 -134.56920 26734 ft 358 kts 48°
2026-04-24 22:48 23.37408 -134.54900 26737 ft 359 kts 48°
2026-04-24 22:48 23.39091 -134.52863 26740 ft 360 kts 48°
2026-04-24 22:48 23.40772 -134.50825 26744 ft 362 kts 48°
2026-04-24 22:48 23.42457 -134.48784 26747 ft 363 kts 48°
2026-04-24 22:49 23.44146 -134.46738 26751 ft 365 kts 48°
2026-04-24 22:49 23.45843 -134.44681 26754 ft 366 kts 48°
2026-04-24 22:49 23.47562 -134.42596 26757 ft 367 kts 48°
2026-04-24 22:49 23.49254 -134.40543 26762 ft 369 kts 48°
2026-04-24 22:50 23.50987 -134.38438 26766 ft 370 kts 48°
2026-04-24 22:50 23.52702 -134.36356 26771 ft 372 kts 48°
2026-04-24 22:50 23.54441 -134.34244 26775 ft 373 kts 48°
2026-04-24 22:50 23.56165 -134.32147 26779 ft 374 kts 48°
2026-04-24 22:51 23.57910 -134.30026 26784 ft 376 kts 48°
2026-04-24 22:51 23.59653 -134.27907 26788 ft 377 kts 48°
2026-04-24 22:51 23.61410 -134.25768 26793 ft 379 kts 48°
2026-04-24 22:51 23.63181 -134.23613 26797 ft 380 kts 48°
2026-04-24 22:52 23.64949 -134.21458 26802 ft 382 kts 48°
2026-04-24 22:52 23.66718 -134.19304 26806 ft 383 kts 48°
2026-04-24 22:52 23.68492 -134.17142 26811 ft 384 kts 48°
2026-04-24 22:52 23.70297 -134.14940 26816 ft 386 kts 48°
2026-04-24 22:53 23.72081 -134.12764 26821 ft 387 kts 48°
2026-04-24 22:53 23.73875 -134.10574 26826 ft 388 kts 48°
2026-04-24 22:53 23.75674 -134.08377 26830 ft 390 kts 48°
2026-04-24 22:53 23.77480 -134.06171 26836 ft 391 kts 48°
2026-04-24 22:54 23.79315 -134.03929 26842 ft 392 kts 48°
2026-04-24 22:54 23.81127 -134.01714 26847 ft 394 kts 48°
2026-04-24 22:54 23.82964 -133.99466 26853 ft 395 kts 48°
2026-04-24 22:54 23.84780 -133.97244 26859 ft 396 kts 48°
2026-04-24 22:55 23.86632 -133.94977 26864 ft 397 kts 48°
2026-04-24 22:55 23.88465 -133.92731 26869 ft 398 kts 48°
2026-04-24 22:55 23.90300 -133.90483 26875 ft 400 kts 48°
2026-04-24 22:55 23.92163 -133.88199 26881 ft 401 kts 48°
2026-04-24 22:56 23.93957 -133.85997 26887 ft 402 kts 48°
2026-04-24 22:56 23.95832 -133.83697 26894 ft 403 kts 48°
2026-04-24 22:56 23.97686 -133.81421 26900 ft 404 kts 48°
2026-04-24 22:56 23.99569 -133.79108 26906 ft 405 kts 48°
2026-04-24 22:57 24.01457 -133.76787 26912 ft 406 kts 48°
2026-04-24 22:57 24.03331 -133.74483 26918 ft 407 kts 48°
2026-04-24 22:57 24.05227 -133.72151 26925 ft 408 kts 48°
2026-04-24 22:57 24.07105 -133.69840 26931 ft 409 kts 48°
2026-04-24 22:58 24.09013 -133.67490 26938 ft 410 kts 48°
2026-04-24 22:58 24.10895 -133.65172 26943 ft 411 kts 48°
2026-04-24 22:58 24.12806 -133.62817 26946 ft 412 kts 48°
2026-04-24 22:58 24.14707 -133.60472 26950 ft 413 kts 48°
2026-04-24 22:59 24.16623 -133.58109 26952 ft 414 kts 48°
2026-04-24 22:59 24.18545 -133.55737 26956 ft 415 kts 48°
2026-04-24 22:59 24.22360 -133.51025 26963 ft 417 kts 48°
2026-04-24 23:00 24.24300 -133.48630 26966 ft 418 kts 48°
2026-04-24 23:00 24.26212 -133.46263 26971 ft 419 kts 48°
2026-04-24 23:00 24.28147 -133.43869 26974 ft 420 kts 47°
2026-04-24 23:00 24.30092 -133.41463 26979 ft 421 kts 47°
2026-04-24 23:01 24.32032 -133.39059 26983 ft 421 kts 48°
2026-04-24 23:01 24.33976 -133.36650 26987 ft 422 kts 47°
2026-04-24 23:01 24.35928 -133.34232 26992 ft 423 kts 48°
2026-04-24 23:01 24.37890 -133.31798 26995 ft 424 kts 48°
2026-04-24 23:02 24.39832 -133.29388 26998 ft 425 kts 48°
2026-04-24 23:02 24.41790 -133.26958 27002 ft 425 kts 48°
2026-04-24 23:02 24.43759 -133.24512 27005 ft 426 kts 48°
2026-04-24 23:02 24.45727 -133.22066 27009 ft 427 kts 48°
2026-04-24 23:03 24.47678 -133.19640 27012 ft 428 kts 48°
2026-04-24 23:03 24.49662 -133.17172 27016 ft 428 kts 48°
2026-04-24 23:03 24.51616 -133.14740 27020 ft 429 kts 48°
2026-04-24 23:03 24.53599 -133.12270 27023 ft 430 kts 48°
2026-04-24 23:04 24.55588 -133.09792 27027 ft 430 kts 48°
2026-04-24 23:04 24.57550 -133.07346 27032 ft 431 kts 48°
2026-04-24 23:04 24.59541 -133.04862 27036 ft 432 kts 48°
2026-04-24 23:04 24.61536 -133.02371 27040 ft 432 kts 48°
2026-04-24 23:05 24.63506 -132.99913 27043 ft 433 kts 48°
2026-04-24 23:05 24.65507 -132.97414 27048 ft 433 kts 48°
2026-04-24 23:05 24.67486 -132.94940 27051 ft 434 kts 48°
2026-04-24 23:05 24.69497 -132.92424 27055 ft 435 kts 48°
2026-04-24 23:06 24.71501 -132.89917 27057 ft 435 kts 48°
2026-04-24 23:06 24.73477 -132.87444 27060 ft 436 kts 48°
2026-04-24 23:06 24.75486 -132.84927 27062 ft 437 kts 48°
2026-04-24 23:06 24.77498 -132.82405 27065 ft 437 kts 48°
2026-04-24 23:07 24.79499 -132.79897 27069 ft 438 kts 48°
2026-04-24 23:07 24.81511 -132.77371 27073 ft 438 kts 48°
2026-04-24 23:07 24.83516 -132.74855 27075 ft 439 kts 48°
2026-04-24 23:07 24.84999 -132.72994 27080 ft 439 kts 48°
2026-04-24 23:08 24.86953 -132.70538 27082 ft 440 kts 48°
2026-04-24 23:08 24.88980 -132.67990 27084 ft 440 kts 48°
2026-04-24 23:08 24.90988 -132.65465 27089 ft 441 kts 48°
2026-04-24 23:08 24.93029 -132.62894 27097 ft 449 kts 49°
2026-04-24 23:09 24.95077 -132.60304 27107 ft 452 kts 49°
2026-04-24 23:09 24.97162 -132.57665 27109 ft 454 kts 49°
2026-04-24 23:09 24.99233 -132.55045 27117 ft 457 kts 49°
2026-04-24 23:09 25.01345 -132.52374 27122 ft 465 kts 49°
2026-04-24 23:10 25.03520 -132.49649 27152 ft 486 kts 49°
2026-04-24 23:10 25.05785 -132.46808 27233 ft 504 kts 49°
2026-04-24 23:10 25.08134 -132.43852 27352 ft 520 kts 49°
2026-04-24 23:10 25.10536 -132.40826 27822 ft 527 kts 49°
2026-04-24 23:11 25.12936 -132.37796 28733 ft 523 kts 49°
2026-04-24 23:11 25.15326 -132.34776 29737 ft 518 kts 49°
2026-04-24 23:11 25.17676 -132.31802 30736 ft 513 kts 49°
2026-04-24 23:11 25.20005 -132.28853 31712 ft 508 kts 49°
2026-04-24 23:12 25.22322 -132.25915 32548 ft 505 kts 49°
2026-04-24 23:12 25.24612 -132.23009 32874 ft 506 kts 49°
2026-04-24 23:12 25.26925 -132.20070 32887 ft 504 kts 49°
2026-04-24 23:13 25.31599 -132.14146 33274 ft 508 kts 48°
2026-04-24 23:13 25.33994 -132.11174 33939 ft 509 kts 48°
2026-04-24 23:13 25.36361 -132.08237 34889 ft 504 kts 48°
2026-04-24 23:13 25.38679 -132.05357 35809 ft 499 kts 48°
2026-04-24 23:14 25.41003 -132.02467 36512 ft 497 kts 47°
2026-04-24 23:14 25.43303 -131.99605 36892 ft 499 kts 47°
2026-04-24 23:14 25.45641 -131.96690 36890 ft 500 kts 48°
2026-04-24 23:15 25.50257 -131.90930 36889 ft 500 kts 47°
2026-04-24 23:15 25.54847 -131.85196 36890 ft 499 kts 48°
2026-04-24 23:16 25.65095 -131.72365 36913 ft 499 kts 48°
2026-04-24 23:16 26.01689 -131.26254 36948 ft 504 kts 49°
2026-04-24 23:17 26.06305 -131.20406 36890 ft 500 kts 49°
2026-04-24 23:17 26.10875 -131.14609 36889 ft 500 kts 49°
2026-04-24 23:18 26.15442 -131.08806 36888 ft 500 kts 49°
2026-04-24 23:18 26.20030 -131.02969 36887 ft 500 kts 49°
2026-04-24 23:19 26.24591 -130.97159 37282 ft 494 kts 49°
2026-04-24 23:19 26.26853 -130.94276 37726 ft 494 kts 49°
2026-04-24 23:19 26.29136 -130.91365 37485 ft 502 kts 49°
2026-04-24 23:20 26.33695 -130.85542 37837 ft 495 kts 49°
2026-04-24 23:20 26.35948 -130.82663 38241 ft 495 kts 49°
2026-04-24 23:20 26.38215 -130.79764 38521 ft 498 kts 49°
2026-04-24 23:20 26.40523 -130.76810 38830 ft 500 kts 49°
2026-04-24 23:21 26.42798 -130.73895 38876 ft 501 kts 49°
2026-04-24 23:21 26.47353 -130.68054 38884 ft 498 kts 49°
2026-04-24 23:22 26.51928 -130.62180 38881 ft 499 kts 49°
2026-04-24 23:22 26.56476 -130.56332 38882 ft 498 kts 49°
2026-04-24 23:23 26.61011 -130.50494 38880 ft 498 kts 49°
2026-04-24 23:23 26.65593 -130.44589 38878 ft 499 kts 49°
2026-04-24 23:24 26.70136 -130.38725 38879 ft 498 kts 49°
2026-04-24 23:24 26.74674 -130.32861 38874 ft 498 kts 50°
2026-04-24 23:25 26.79213 -130.26988 38874 ft 497 kts 50°
2026-04-24 23:25 26.83748 -130.21112 38875 ft 499 kts 50°
2026-04-24 23:26 26.88286 -130.15222 38874 ft 497 kts 50°
2026-04-24 23:26 26.92796 -130.09363 38872 ft 498 kts 50°
2026-04-24 23:27 26.97310 -130.03490 38872 ft 497 kts 50°
2026-04-24 23:27 27.01622 -129.97421 38869 ft 498 kts 55°
2026-04-24 23:28 27.05629 -129.91118 38870 ft 497 kts 55°
2026-04-24 23:28 27.09649 -129.84775 38870 ft 497 kts 55°
2026-04-24 23:29 27.13675 -129.78413 38870 ft 497 kts 55°
2026-04-24 23:29 27.17674 -129.72086 38864 ft 498 kts 55°
2026-04-24 23:30 27.21704 -129.65700 38866 ft 498 kts 55°
2026-04-24 23:30 27.25727 -129.59315 38868 ft 500 kts 55°
2026-04-24 23:31 27.29724 -129.52965 38869 ft 500 kts 55°
2026-04-24 23:31 27.33748 -129.46559 38869 ft 499 kts 55°
2026-04-24 23:32 27.37745 -129.40189 38872 ft 500 kts 55°
2026-04-24 23:32 27.41747 -129.33801 38868 ft 501 kts 56°
2026-04-24 23:33 27.45764 -129.27380 38866 ft 500 kts 55°
2026-04-24 23:33 27.49736 -129.21021 38869 ft 500 kts 55°
2026-04-24 23:34 27.53728 -129.14621 38867 ft 501 kts 55°
2026-04-24 23:34 27.57718 -129.08215 38866 ft 501 kts 55°
2026-04-24 23:35 27.61708 -129.01800 38867 ft 501 kts 55°
2026-04-24 23:35 27.65682 -128.95403 38869 ft 500 kts 55°
2026-04-24 23:36 27.69692 -128.88936 38869 ft 502 kts 55°
2026-04-24 23:36 27.73677 -128.82500 38871 ft 501 kts 55°
2026-04-24 23:37 27.77656 -128.76065 38870 ft 500 kts 55°
2026-04-24 23:37 27.83607 -128.66422 38870 ft 501 kts 55°
2026-04-24 23:38 27.87611 -128.59923 38868 ft 500 kts 55°
2026-04-24 23:38 27.91565 -128.53494 38871 ft 502 kts 55°
2026-04-24 23:39 27.95548 -128.47009 38870 ft 501 kts 54°
2026-04-24 23:39 27.99516 -128.40540 38872 ft 500 kts 54°
2026-04-24 23:40 28.03480 -128.34065 38871 ft 501 kts 55°
2026-04-24 23:40 28.07458 -128.27557 38867 ft 501 kts 55°
2026-04-24 23:41 28.11411 -128.21083 38867 ft 500 kts 55°
2026-04-24 23:41 28.15345 -128.14630 38867 ft 499 kts 54°
2026-04-24 23:42 28.19292 -128.08145 38867 ft 499 kts 54°
2026-04-24 23:42 28.23237 -128.01654 38868 ft 501 kts 54°
2026-04-24 23:43 28.27191 -127.95139 38868 ft 499 kts 54°
2026-04-24 23:43 28.31125 -127.88646 38867 ft 499 kts 54°
2026-04-24 23:44 28.35054 -127.82153 38869 ft 499 kts 54°
2026-04-24 23:44 28.38968 -127.75673 38869 ft 499 kts 54°
2026-04-24 23:45 28.42892 -127.69167 38871 ft 500 kts 54°
2026-04-24 23:45 28.46824 -127.62637 38870 ft 499 kts 54°
2026-04-24 23:46 28.50738 -127.56127 38872 ft 500 kts 54°
2026-04-24 23:46 28.54641 -127.49627 38868 ft 497 kts 54°
2026-04-24 23:47 28.58585 -127.43046 38873 ft 499 kts 54°
2026-04-24 23:47 28.62474 -127.36548 38869 ft 499 kts 54°
2026-04-24 23:48 28.66370 -127.30027 38869 ft 499 kts 55°
2026-04-24 23:48 28.70266 -127.23498 38868 ft 499 kts 55°
2026-04-24 23:49 28.74167 -127.16949 38868 ft 499 kts 55°
2026-04-24 23:49 28.78049 -127.10422 38867 ft 498 kts 55°
2026-04-24 23:50 28.81961 -127.03836 38868 ft 498 kts 55°
2026-04-24 23:50 28.85840 -126.97295 38868 ft 499 kts 55°
2026-04-24 23:51 28.89712 -126.90753 38869 ft 497 kts 55°
2026-04-24 23:51 28.93585 -126.84202 38868 ft 498 kts 55°
2026-04-24 23:52 28.97444 -126.77664 38870 ft 498 kts 54°
2026-04-24 23:52 29.01320 -126.71087 38869 ft 496 kts 55°
2026-04-24 23:53 29.05173 -126.64538 38869 ft 497 kts 55°
2026-04-24 23:53 29.09021 -126.57987 38870 ft 497 kts 54°
2026-04-24 23:54 29.12850 -126.51457 38871 ft 497 kts 54°
2026-04-24 23:54 29.16694 -126.44892 38869 ft 495 kts 55°
2026-04-24 23:55 29.20516 -126.38354 38869 ft 495 kts 54°
2026-04-24 23:55 29.24344 -126.31800 38867 ft 496 kts 55°
2026-04-24 23:56 29.28176 -126.25225 38867 ft 494 kts 55°
2026-04-24 23:56 29.31983 -126.18683 38868 ft 496 kts 55°
2026-04-24 23:57 29.35796 -126.12119 38869 ft 494 kts 55°
2026-04-24 23:57 29.39592 -126.05575 38867 ft 494 kts 55°
2026-04-24 23:58 29.43388 -125.99020 38867 ft 494 kts 55°
2026-04-24 23:58 29.47198 -125.92431 38868 ft 494 kts 55°
2026-04-24 23:59 29.50991 -125.85859 38868 ft 494 kts 55°
2026-04-24 23:59 29.54764 -125.79312 38869 ft 493 kts 55°
2026-04-25 00:00 29.58569 -125.72700 38866 ft 493 kts 55°
2026-04-25 00:00 29.62333 -125.66148 38868 ft 493 kts 55°
2026-04-25 00:01 29.66120 -125.59547 38867 ft 492 kts 55°
2026-04-25 00:01 29.69871 -125.52995 38867 ft 493 kts 55°
2026-04-25 00:02 29.73632 -125.46416 38869 ft 492 kts 55°
2026-04-25 00:02 29.77387 -125.39837 38870 ft 493 kts 55°
2026-04-25 00:03 29.81158 -125.33219 38866 ft 493 kts 56°
2026-04-25 00:03 29.84906 -125.26631 38870 ft 492 kts 56°
2026-04-25 00:04 29.88663 -125.20019 38864 ft 493 kts 56°
2026-04-25 00:04 29.92390 -125.13448 38867 ft 492 kts 56°
2026-04-25 00:05 29.96133 -125.06838 38868 ft 493 kts 56°
2026-04-25 00:05 29.99835 -125.00186 38853 ft 492 kts 59°
2026-04-25 00:06 30.03038 -124.93242 38869 ft 492 kts 61°
2026-04-25 00:06 30.06206 -124.86240 38869 ft 492 kts 61°
2026-04-25 00:07 30.09363 -124.79243 38867 ft 492 kts 61°
2026-04-25 00:07 30.12509 -124.72253 38869 ft 491 kts 61°
2026-04-25 00:08 30.15655 -124.65249 38869 ft 491 kts 61°
2026-04-25 00:08 30.18792 -124.58250 38869 ft 490 kts 61°
2026-04-25 00:09 30.21913 -124.51276 38869 ft 490 kts 61°
2026-04-25 00:09 30.25038 -124.44276 38870 ft 490 kts 61°
2026-04-25 00:10 30.28145 -124.37306 38870 ft 489 kts 61°
2026-04-25 00:10 30.31265 -124.30293 38868 ft 488 kts 61°
2026-04-25 00:11 30.34367 -124.23306 38868 ft 488 kts 61°
2026-04-25 00:11 30.37457 -124.16338 38867 ft 488 kts 62°
2026-04-25 00:12 30.40563 -124.09317 38868 ft 487 kts 61°
2026-04-25 00:12 30.43659 -124.02308 38868 ft 487 kts 62°
2026-04-25 00:13 30.46742 -123.95313 38869 ft 487 kts 61°
2026-04-25 00:13 30.49820 -123.88319 38868 ft 487 kts 62°
2026-04-25 00:14 30.52893 -123.81322 38868 ft 487 kts 62°
2026-04-25 00:14 30.55964 -123.74319 38868 ft 487 kts 62°
2026-04-25 00:15 30.59028 -123.67315 38868 ft 488 kts 62°
2026-04-25 00:15 30.62101 -123.60278 38868 ft 488 kts 62°
2026-04-25 00:16 30.65151 -123.53282 38868 ft 488 kts 62°
2026-04-25 00:16 30.68206 -123.46262 38868 ft 488 kts 62°
2026-04-25 00:17 30.71275 -123.39196 38868 ft 488 kts 62°
2026-04-25 00:17 30.74317 -123.32179 38867 ft 488 kts 62°
2026-04-25 00:18 30.77353 -123.25163 38867 ft 488 kts 62°
2026-04-25 00:18 30.80397 -123.18115 38867 ft 488 kts 63°
2026-04-25 00:19 30.83437 -123.11064 38867 ft 488 kts 62°
2026-04-25 00:19 30.86450 -123.04060 38868 ft 488 kts 63°
2026-04-25 00:20 30.89481 -122.97002 38865 ft 487 kts 63°
2026-04-25 00:20 30.92499 -122.89960 38865 ft 488 kts 63°
2026-04-25 00:21 30.95534 -122.82868 38867 ft 488 kts 62°
2026-04-25 00:21 30.98549 -122.75806 38867 ft 488 kts 63°
2026-04-25 00:22 31.01555 -122.68752 38866 ft 488 kts 63°
2026-04-25 00:22 31.04562 -122.61684 38869 ft 488 kts 62°
2026-04-25 00:23 31.07565 -122.54615 38867 ft 488 kts 63°
2026-04-25 00:23 31.10556 -122.47558 38868 ft 488 kts 63°
2026-04-25 00:24 31.13569 -122.40430 38867 ft 488 kts 63°
2026-04-25 00:24 31.16552 -122.33365 38867 ft 488 kts 63°
2026-04-25 00:25 31.19549 -122.26251 38866 ft 488 kts 63°
2026-04-25 00:25 31.22532 -122.19156 38864 ft 488 kts 63°
2026-04-25 00:26 31.25526 -122.12021 38865 ft 488 kts 63°
2026-04-25 00:26 31.28517 -122.04882 38867 ft 488 kts 63°
2026-04-25 00:27 31.31497 -121.97753 38867 ft 488 kts 63°
2026-04-25 00:27 31.34476 -121.90614 38868 ft 488 kts 63°
2026-04-25 00:28 31.37446 -121.83480 38868 ft 489 kts 63°
2026-04-25 00:28 31.40420 -121.76326 38868 ft 490 kts 63°
2026-04-25 00:29 31.43380 -121.69187 38868 ft 490 kts 63°
2026-04-25 00:29 31.46365 -121.61979 38868 ft 489 kts 63°
2026-04-25 00:30 31.49327 -121.54809 38868 ft 490 kts 63°
2026-04-25 00:30 31.52278 -121.47652 38869 ft 490 kts 63°
2026-04-25 00:31 31.55263 -121.40424 38871 ft 491 kts 61°
2026-04-25 00:31 31.59039 -121.33776 38868 ft 488 kts 53°
2026-04-25 00:32 31.62963 -121.27445 38867 ft 478 kts 53°
2026-04-25 00:32 31.66830 -121.21192 38867 ft 468 kts 53°
2026-04-25 00:33 31.70613 -121.15062 38866 ft 459 kts 53°
2026-04-25 00:33 31.74331 -121.09036 38868 ft 460 kts 53°
2026-04-25 00:34 31.78145 -121.02857 38869 ft 471 kts 53°
2026-04-25 00:34 31.82022 -120.96551 38869 ft 484 kts 53°
2026-04-25 00:35 31.86000 -120.90062 38868 ft 493 kts 53°
2026-04-25 00:35 31.89988 -120.83541 38868 ft 491 kts 53°
2026-04-25 00:36 31.93964 -120.77027 38868 ft 492 kts 53°
2026-04-25 00:36 31.97968 -120.70455 38868 ft 492 kts 53°
2026-04-25 00:37 32.01940 -120.63925 38869 ft 492 kts 53°
2026-04-25 00:37 32.05935 -120.57346 38869 ft 492 kts 53°
2026-04-25 00:38 32.09936 -120.50744 38869 ft 493 kts 53°
2026-04-25 00:38 32.13895 -120.44200 38869 ft 492 kts 53°
2026-04-25 00:39 32.17859 -120.37637 38869 ft 492 kts 53°
2026-04-25 00:39 32.21871 -120.30983 38867 ft 492 kts 54°
2026-04-25 00:40 32.25827 -120.24412 38867 ft 492 kts 54°
2026-04-25 00:40 32.29777 -120.17837 38868 ft 492 kts 54°
2026-04-25 00:41 32.33744 -120.11224 38867 ft 492 kts 54°
2026-04-25 00:41 32.37683 -120.04645 38868 ft 492 kts 54°
2026-04-25 00:42 32.41637 -119.98031 38868 ft 492 kts 54°
2026-04-25 00:42 32.45610 -119.91370 38868 ft 493 kts 54°
2026-04-25 00:43 32.49560 -119.84737 38868 ft 494 kts 54°
2026-04-25 00:43 32.53522 -119.78072 38776 ft 489 kts 54°
2026-04-25 00:44 32.55462 -119.74803 38005 ft 488 kts 54°
2026-04-25 00:44 32.57433 -119.71481 36942 ft 493 kts 54°
2026-04-25 00:44 32.59395 -119.68170 36103 ft 493 kts 55°
2026-04-25 00:44 32.61340 -119.64887 35308 ft 492 kts 55°
2026-04-25 00:45 32.63320 -119.61541 34438 ft 491 kts 55°
2026-04-25 00:45 32.65281 -119.58227 33538 ft 491 kts 55°
2026-04-25 00:45 32.67223 -119.54939 32658 ft 490 kts 56°
2026-04-25 00:45 32.69176 -119.51630 31752 ft 491 kts 56°
2026-04-25 00:46 32.71124 -119.48328 30821 ft 491 kts 56°
2026-04-25 00:46 32.73073 -119.45021 30146 ft 486 kts 56°
2026-04-25 00:46 32.76876 -119.38558 29137 ft 470 kts 57°
2026-04-25 00:47 32.78735 -119.35396 28570 ft 464 kts 57°
2026-04-25 00:47 32.80593 -119.32231 28007 ft 459 kts 57°
2026-04-25 00:47 32.82430 -119.29098 27429 ft 454 kts 57°
2026-04-25 00:47 32.84222 -119.26041 26960 ft 455 kts 57°
2026-04-25 00:48 32.86063 -119.22894 26870 ft 464 kts 57°
2026-04-25 00:48 32.87899 -119.19758 26652 ft 468 kts 57°
2026-04-25 00:48 32.89749 -119.16594 26228 ft 461 kts 56°
2026-04-25 00:48 32.91571 -119.13477 25662 ft 455 kts 56°
2026-04-25 00:49 32.93370 -119.10392 24994 ft 453 kts 56°
2026-04-25 00:49 32.95159 -119.07323 24340 ft 449 kts 56°
2026-04-25 00:49 32.96915 -119.04310 23692 ft 446 kts 56°
2026-04-25 00:49 32.98685 -119.01269 22997 ft 444 kts 55°
2026-04-25 00:50 33.00427 -118.98274 22367 ft 440 kts 55°
2026-04-25 00:50 33.02164 -118.95285 21774 ft 436 kts 55°
2026-04-25 00:50 33.03893 -118.92308 21203 ft 431 kts 55°
2026-04-25 00:50 33.05597 -118.89372 20603 ft 428 kts 54°
2026-04-25 00:51 33.07265 -118.86494 19982 ft 425 kts 54°
2026-04-25 00:51 33.08947 -118.83591 19392 ft 421 kts 54°
2026-04-25 00:51 33.10613 -118.80713 18812 ft 416 kts 54°
2026-04-25 00:51 33.12294 -118.77808 18215 ft 412 kts 54°
2026-04-25 00:52 33.13859 -118.75100 17626 ft 410 kts 54°
2026-04-25 00:52 33.15493 -118.72271 17262 ft 399 kts 54°
2026-04-25 00:52 33.17072 -118.69532 17147 ft 383 kts 54°
2026-04-25 00:52 33.18510 -118.67037 17119 ft 366 kts 54°
2026-04-25 00:53 33.20050 -118.64654 16871 ft 356 kts 47°
2026-04-25 00:53 33.21679 -118.62446 16404 ft 354 kts 47°
2026-04-25 00:53 33.23288 -118.60253 15994 ft 350 kts 48°
2026-04-25 00:53 33.24887 -118.58049 15803 ft 348 kts 48°
2026-04-25 00:54 33.26463 -118.55861 15543 ft 350 kts 48°
2026-04-25 00:54 33.28061 -118.53628 15374 ft 349 kts 48°
2026-04-25 00:54 33.29621 -118.51439 15267 ft 347 kts 49°
2026-04-25 00:54 33.31189 -118.49237 15178 ft 347 kts 49°
2026-04-25 00:55 33.32712 -118.46928 15072 ft 348 kts 57°
2026-04-25 00:55 33.33653 -118.44302 14972 ft 348 kts 74°
2026-04-25 00:55 33.33924 -118.41415 14886 ft 352 kts 88°
2026-04-25 00:55 33.33997 -118.38385 14630 ft 380 kts 80°
2026-04-25 00:56 33.34709 -118.35304 13996 ft 388 kts 64°
2026-04-25 00:56 33.36190 -118.32522 13339 ft 386 kts 48°
2026-04-25 00:56 33.38275 -118.30412 12739 ft 382 kts 32°
2026-04-25 00:56 33.40612 -118.28883 12158 ft 379 kts 28°
2026-04-25 00:57 33.42997 -118.27409 11548 ft 376 kts 28°
2026-04-25 00:57 33.45326 -118.25971 10958 ft 373 kts 28°
2026-04-25 00:57 33.47599 -118.24567 10763 ft 358 kts 28°
2026-04-25 00:57 33.49780 -118.23219 10684 ft 341 kts 28°
2026-04-25 00:58 33.51843 -118.21944 10566 ft 327 kts 28°
2026-04-25 00:58 33.53849 -118.20702 10427 ft 315 kts 28°
2026-04-25 00:58 33.55761 -118.19518 10285 ft 304 kts 28°
2026-04-25 00:58 33.57619 -118.18366 10142 ft 293 kts 28°
2026-04-25 00:59 33.59416 -118.17252 9855 ft 284 kts 28°
2026-04-25 00:59 33.61150 -118.16176 9389 ft 280 kts 29°
2026-04-25 00:59 33.62891 -118.15095 8894 ft 276 kts 29°
2026-04-25 00:59 33.64576 -118.14048 8404 ft 273 kts 29°
2026-04-25 01:00 33.66268 -118.12997 7919 ft 269 kts 29°
2026-04-25 01:00 33.67923 -118.11968 7439 ft 264 kts 29°
2026-04-25 01:00 33.69547 -118.10959 7163 ft 252 kts 29°
2026-04-25 01:00 33.71083 -118.10004 7032 ft 242 kts 30°
2026-04-25 01:01 33.72542 -118.09098 6933 ft 231 kts 30°
2026-04-25 01:01 33.73975 -118.08211 6918 ft 229 kts 27°
2026-04-25 01:01 33.75557 -118.07812 6917 ft 235 kts 359°
2026-04-25 01:01 33.77207 -118.08100 6919 ft 239 kts 353°
2026-04-25 01:02 33.78836 -118.08452 6793 ft 242 kts 352°
2026-04-25 01:02 33.80511 -118.08816 6467 ft 243 kts 353°
2026-04-25 01:02 33.82178 -118.09177 6138 ft 243 kts 352°
2026-04-25 01:02 33.83865 -118.09544 5798 ft 244 kts 353°
2026-04-25 01:03 33.85528 -118.09904 5467 ft 244 kts 352°
2026-04-25 01:03 33.87217 -118.10268 5130 ft 245 kts 352°
2026-04-25 01:03 33.88882 -118.10693 4830 ft 245 kts 342°
2026-04-25 01:03 33.90380 -118.11654 4527 ft 246 kts 329°
2026-04-25 01:04 33.91787 -118.12788 4273 ft 241 kts 327°
2026-04-25 01:04 33.93183 -118.13936 4007 ft 239 kts 328°
2026-04-25 01:04 33.94542 -118.15085 3751 ft 238 kts 320°
2026-04-25 01:04 33.95452 -118.16651 3503 ft 231 kts 292°
2026-04-25 01:05 33.95596 -118.18520 3258 ft 222 kts 259°
2026-04-25 01:05 33.95246 -118.20289 3018 ft 215 kts 258°
2026-04-25 01:05 33.95068 -118.22058 2705 ft 213 kts 263°
2026-04-25 01:05 33.94894 -118.23800 2398 ft 211 kts 264°
2026-04-25 01:06 33.94772 -118.25549 2142 ft 203 kts 265°
2026-04-25 01:06 33.94670 -118.27177 1898 ft 193 kts 265°
2026-04-25 01:06 33.94566 -118.28751 1602 ft 184 kts 265°
2026-04-25 01:06 33.94455 -118.30292 1439 ft 185 kts 264°
2026-04-25 01:07 33.94319 -118.31848 1219 ft 186 kts 263°
2026-04-25 01:07 33.94174 -118.33384 916 ft 177 kts 263°
2026-04-25 01:07 33.94038 -118.34896 663 ft 182 kts 264°
2026-04-25 01:07 33.93914 -118.36370 425 ft 176 kts 263°
2026-04-25 01:08 33.93780 -118.37809 193 ft 161 kts 263°
2026-04-25 01:08 33.93658 -118.39036 115 ft 134 kts 263°
2026-04-25 01:08 33.93570 -118.39939 123 ft 70 kts 264°
2026-04-25 01:08 33.93537 -118.40422 131 ft 39 kts 273°
2026-04-25 01:09 33.93581 -118.40645 134 ft 13 kts 288°
2026-04-25 01:09 33.93589 -118.40705 135 ft 0 kts 272°
2026-04-25 01:09 33.93590 -118.40763 136 ft 20 kts 275°
2026-04-25 01:09 33.93701 -118.40900 137 ft 24 kts 352°
2026-04-25 01:10 33.93825 -118.40921 138 ft 16 kts 343°
2026-04-25 01:10 33.93849 -118.41052 137 ft 26 kts 259°
2026-04-25 01:10 33.93966 -118.41180 133 ft 19 kts
2026-04-25 01:10 33.94010 -118.41138 133 ft 3 kts 66°
2026-04-25 01:11 33.94014 -118.41124 134 ft 2 kts 74°
2026-04-25 01:11 33.94018 -118.41099 134 ft 0 kts 82°
2026-04-25 01:11 33.94020 -118.41079 135 ft 0 kts 82°
2026-04-25 01:11 33.94021 -118.41075 135 ft 0 kts 82°